Location: Navalespino
(40.5894°N, 4.2660°W)
Time: 17:06:15
(UTC+00:00)

Okean-O - Pass Details

Date: 18 April 2024
Orbit: 633 x 635 km, 98.0° (Epoch: 24 May)

Event Time Altitude Azimuth Distance (km) Brightness Sun altitude
Exits shadow 20:49:04 34° 170° (S) 1,040 3.3 -19.5°
Maximum altitude 20:50:57 86° 257° (WSW) 643 2.6 -19.8°
Drops below altitude 10° 20:55:23 10° 346° (NNW) 2,030 5.9 -20.5°
Sets 20:57:36 0° 347° (NNW) 2,942 6.8 -20.8°
